College Station, TX

3:03 AM CST on February 24, 2017 (GMT -0600)
Easterwood

Weather History for KCLL - June, 2013

Change the Weather History Date:

Tuesday, June 4, 2013

  Actual Average Record
Temperature  
Mean Temperature 80 °F 80 °F  
Max Temperature 91 °F 90 °F 100 °F (1960)
Min Temperature 69 °F 71 °F 56 °F (1919)
Degree Days  
Heating Degree Days 0 0  
Month to date heating degree days 0 0  
Since 1 June heating degree days 0 0  
Since 1 July heating degree days 1354 1608  
Cooling Degree Days 15 16  
Month to date cooling degree days 61 61  
Year to date cooling degree days 625 649  
Since 1 June cooling degree days 61 61  
Growing Degree Days 30 (Base 50)    
Moisture  
Dew Point 69 °F    
Average Humidity 73    
Maximum Humidity 97    
Minimum Humidity 49    
Precipitation  
Precipitation 0.00 in 0.16 in 3.58 in (1981)
Month to date precipitation 1.04 0.65  
Year to date precipitation 17.31 16.90  
Sea Level Pressure  
Sea Level Pressure 29.87 in    
Wind  
Wind Speed 6 mph (SE)    
Max Wind Speed 13 mph    
Max Gust Speed 20 mph    
Visibility 10 miles    
Events      
T = Trace of Precipitation, MM = Missing Value Source: NWS Daily Summary

Daily Weather History Graph

Daily Weather History Graph

Search for Another Location

Airport or City:

Trip Planner

Search our weather history database for the weather conditions in past years. The results will help you decide how hot, cold, wet, or windy it might be!

Date:

Astronomy

Jun. 04, 2013 Rise Set
Actual Time 6:22 AM CDT 8:25 PM CDT
Civil Twilight 5:55 AM CDT 8:52 PM CDT
Nautical Twilight 5:22 AM CDT 9:25 PM CDT
Astronomical Twilight 4:46 AM CDT 10:01 PM CDT
Moon 3:40 AM CDT (6/4) 5:06 PM CDT (6/4)
Length of Visible Light 14h 57m
Length of Day
14h 02m
Waning Crescent, 14% of the Moon is Illuminated
Jun 4
Waning Crescent
Jun 8
New
Jun 16
First Quarter
Jun 23
Full
Jun 29
Last Quarter

Hourly Weather History & Observations

Time (CDT) Temp. Heat Index Dew Point Humidity Pressure Visibility Wind Dir Wind Speed Gust Speed Precip Events Conditions
12:53 AM 75.0 °F - 66.0 °F 73% 29.88 in 10.0 mi South 5.8 mph - N/A   Clear
1:53 AM 73.9 °F - 66.9 °F 79% 29.88 in 10.0 mi Calm Calm - N/A   Clear
2:53 AM 72.0 °F - 68.0 °F 87% 29.87 in 10.0 mi Calm Calm - N/A   Clear
3:53 AM 71.1 °F - 68.0 °F 90% 29.88 in 10.0 mi East 3.5 mph - N/A   Clear
4:53 AM 70.0 °F - 66.9 °F 90% 29.87 in 10.0 mi East 3.5 mph - N/A   Clear
5:53 AM 69.1 °F - 66.9 °F 93% 29.87 in 10.0 mi SE 3.5 mph - N/A   Clear
6:53 AM 70.0 °F - 68.0 °F 93% 29.87 in 7.0 mi SE 4.6 mph - N/A   Clear
7:53 AM 73.0 °F - 70.0 °F 90% 29.89 in 10.0 mi SSE 3.5 mph - N/A   Clear
8:53 AM 77.0 °F - 70.0 °F 79% 29.91 in 10.0 mi South 4.6 mph - N/A   Clear
9:53 AM 80.1 °F 82.9 °F 69.1 °F 69% 29.92 in 10.0 mi SSW 6.9 mph - N/A   Clear
10:53 AM 82.0 °F 85.5 °F 69.1 °F 65% 29.92 in 10.0 mi SSW 11.5 mph - N/A   Clear
11:53 AM 84.9 °F 89.4 °F 70.0 °F 61% 29.93 in 10.0 mi ENE 5.8 mph - N/A   Clear
12:53 PM 86.0 °F 91.5 °F 71.1 °F 61% 29.91 in 10.0 mi SSE 4.6 mph - N/A   Clear
1:53 PM 88.0 °F 93.8 °F 71.1 °F 57% 29.88 in 10.0 mi SSE 8.1 mph - N/A   Clear
2:53 PM 89.1 °F 94.1 °F 70.0 °F 53% 29.86 in 10.0 mi ESE 8.1 mph - N/A   Clear
3:53 PM 90.0 °F 95.4 °F 70.0 °F 52% 29.83 in 10.0 mi SE 10.4 mph - N/A   Clear
4:53 PM 91.0 °F 95.6 °F 69.1 °F 48% 29.82 in 10.0 mi SSE 9.2 mph - N/A   Clear
5:53 PM 90.0 °F 94.5 °F 69.1 °F 50% 29.81 in 10.0 mi SSE 8.1 mph - N/A   Clear
6:53 PM 90.0 °F 94.5 °F 69.1 °F 50% 29.80 in 10.0 mi SSE 9.2 mph - N/A   Clear
7:53 PM 87.1 °F 91.3 °F 69.1 °F 55% 29.81 in 10.0 mi SSE 6.9 mph - N/A   Clear
8:53 PM 84.0 °F 88.4 °F 70.0 °F 63% 29.81 in 10.0 mi South 3.5 mph - N/A   Clear
9:53 PM 81.0 °F 84.1 °F 69.1 °F 67% 29.84 in 10.0 mi ESE 4.6 mph - N/A   Clear
10:53 PM 80.1 °F 82.9 °F 69.1 °F 69% 29.86 in 10.0 mi SSE 10.4 mph - N/A   Clear
11:53 PM 79.0 °F - 69.1 °F 72% 29.88 in 10.0 mi SSE 5.8 mph - N/A   Clear